User: anonymous   Login
Location: Unspecified
(0.0000°N, 0.0000°E)
Time: 07:57:20
(UTC+00:00)
Language:

GALILEO 8 (264) - Orbit

View from above orbital plane
View from above orbital plane
View from above satellite
View from above satellite

Ground track
Ground track

The orbit data is extracted from the following two-line orbital elements,

1 40545U 15017B   17143.14076812 -.00000040 +00000-0 +00000-0 0  9992
2 40545 055.6039 072.7178 0000470 309.2448 050.7237 01.70475057013409
Epoch (UTC): 23 May 2017 03:22:42
Eccentricity: 0.0000470
inclination: 55.6039°
perigee height: 23220 km
apogee height: 23223 km
right ascension of ascending node: 72.7178°
argument of perigee: 309.2448°
revolutions per day: 1.70475057
mean anomaly at epoch: 50.7237°
orbit number at epoch: 1340

The dashed part of the orbit path shows where the satellite is in the earth's shadow,  

DLR